Location: ?
(35.4214°N, 139.3011°E)
Time: 22:42:17
(UTC+00:00)

Cosmos 2278 Rocket - Pass Details

Date: 14 July 2020
Orbit: 841 x 845 km, 71.0° (Epoch: 10 August)

Event Time Altitude Azimuth Distance (km) Brightness Sun altitude
Rises 10:24:20 0° 354° (N) 3,409 5.9 -5.4°
Reaches altitude 10° 10:27:33 10° 12° (NNE) 2,469 4.9 -5.9°
Maximum altitude 10:31:30 19° 56° (NE) 1,907 3.8 -6.6°
Drops below altitude 10° 10:35:25 10° 101° (E) 2,458 4.0 -7.3°
Enters shadow 10:36:11 - 106° (ESE) 2,663 4.2 -7.4°
